Theta_e
314 314 313 314 314 314 314 314 314 314 313 313 310 308 307 306 306 305 305 306 306 307 307 307 308 308 308 307 306 307 308 311 315 317 320 317 312 313 314 314 314 313 313 313 313 314 314 315 315 316 316 317 320 320 319 320 320 320 321 317 314 316 318 318 319 318 317 319 316 314 315 315 316 314 314 313 313 314 315 315 315 316 316 316 316 314 321 327
314 313 313 313 313 314 313 314 314 313 313 312 310 308 306 305 305 305 305 306 305 306 307 307 308 308 308 307 307 308 308 313 316 318 319 315 311 313 314 314 314 314 314 315 315 314 315 315 315 315 316 316 318 320 319 319 319 320 320 317 316 319 319 319 318 317 318 318 317 316 315 316 316 315 315 314 315 315 314 315 315 316 315 316 315 314 320 325
313 313 312 312 313 313 313 314 314 313 311 310 310 308 306 305 305 305 305 305 305 306 306 308 307 308 307 306 308 307 310 315 314 317 317 313 312 313 313 313 313 313 314 316 316 314 315 315 315 316 315 315 316 317 318 318 318 319 320 318 318 320 318 317 317 317 317 317 317 316 315 315 316 316 315 314 315 315 315 315 315 316 315 316 316 315 319 323
313 312 312 311 312 312 312 313 313 312 310 309 308 307 306 305 304 305 305 305 305 305 306 307 307 308 307 307 309 309 314 316 313 317 315 311 313 312 312 313 313 313 313 314 314 314 315 315 315 315 315 315 315 316 316 317 317 317 316 317 317 318 317 316 316 316 315 315 317 316 315 315 315 316 315 315 315 315 316 316 316 316 316 317 317 316 319 322
312 312 311 311 311 311 311 312 312 311 310 308 307 307 306 305 305 305 305 305 305 305 306 306 307 307 306 307 308 311 317 314 314 318 314 311 313 311 313 313 313 314 313 314 314 314 314 315 316 315 316 316 315 315 315 315 316 317 315 316 316 316 317 316 315 314 314 315 316 316 315 315 315 315 315 316 315 316 317 316 317 317 316 318 318 318 319 321
312 311 311 310 310 310 310 311 311 311 311 310 308 308 307 306 306 305 305 306 305 306 306 306 307 306 307 308 307 311 316 312 315 318 313 312 312 311 313 312 314 314 313 314 315 315 315 315 315 315 315 315 315 315 315 315 315 317 315 315 315 316 316 315 314 312 313 315 316 316 315 315 315 315 315 315 316 316 316 316 317 316 316 317 319 319 319 320
312 310 310 310 310 310 310 310 310 311 312 311 309 308 308 307 306 306 306 306 306 306 306 306 307 306 307 308 309 313 314 313 315 315 312 312 312 312 312 312 314 314 314 315 315 315 315 315 315 315 316 315 315 315 315 315 315 317 316 315 314 315 315 314 313 312 313 315 315 315 314 315 315 316 316 315 316 316 316 315 315 316 314 314 317 319 319 320
312 310 309 309 309 309 309 310 310 310 311 311 311 309 308 307 307 306 306 307 307 307 307 307 306 307 308 310 314 314 313 315 316 314 311 312 311 312 312 313 315 315 316 315 315 316 315 315 315 315 316 315 315 315 315 315 315 317 316 315 315 315 315 313 312 312 313 314 313 314 314 316 315 314 314 315 316 316 316 316 315 315 314 314 315 317 319 320
311 310 309 309 308 308 309 309 309 310 310 310 311 310 308 308 307 306 307 307 307 307 307 307 307 308 308 312 316 313 314 316 315 313 312 312 312 312 313 314 315 315 316 315 315 316 316 316 315 315 316 315 316 315 315 316 315 317 316 315 315 315 314 313 313 313 313 313 313 314 315 316 314 313 314 315 316 316 317 315 315 315 314 314 314 316 317 318
311 309 309 309 308 309 309 309 309 310 310 310 310 309 309 308 307 307 306 307 307 307 308 307 308 308 309 313 314 311 317 317 315 313 311 312 312 312 314 315 315 316 316 315 316 316 316 317 316 317 317 316 316 315 316 316 316 317 316 316 316 316 314 314 315 313 313 314 313 314 316 316 314 313 315 316 316 316 316 315 315 315 315 315 315 315 317 317
310 309 309 309 309 309 309 309 308 309 310 310 310 309 309 308 307 307 306 307 307 307 308 308 309 309 311 313 310 313 317 317 314 313 311 312 312 313 314 314 315 316 316 316 317 317 317 317 317 317 317 316 315 316 315 315 315 316 316 317 316 316 316 315 316 315 314 315 314 315 317 316 315 314 316 317 315 315 316 316 315 315 315 315 315 316 317 318
310 309 309 309 309 309 309 309 309 309 309 310 310 309 309 307 307 307 306 307 307 308 308 308 309 310 312 311 312 317 316 315 314 312 312 312 312 313 314 314 315 316 317 317 316 315 315 317 317 316 316 317 316 316 315 314 315 316 316 317 317 316 317 316 316 315 316 316 314 315 316 316 317 315 317 317 315 315 316 316 316 316 316 316 316 316 316 317
310 309 309 310 310 309 309 309 309 310 310 310 309 308 308 307 307 307 307 308 308 308 308 309 309 310 312 312 316 318 315 313 313 311 312 313 313 314 315 315 315 315 317 317 315 314 314 315 317 316 316 317 317 315 315 315 316 316 317 317 317 316 316 317 317 315 316 315 314 315 314 315 318 318 318 318 315 315 316 316 317 317 317 316 317 317 317 317
310 310 309 310 310 309 309 310 310 310 310 308 307 307 307 306 307 306 307 308 308 309 309 310 309 309 312 313 315 317 315 312 312 313 312 313 314 315 315 315 315 315 316 315 314 313 314 316 317 316 316 316 315 314 316 316 316 318 316 316 317 315 315 318 317 316 316 314 314 316 313 314 319 319 318 316 315 316 316 317 317 318 318 317 317 317 317 317
310 310 310 310 310 309 310 310 311 310 309 307 306 307 307 306 307 307 307 308 309 309 309 310 310 311 312 311 314 316 315 313 314 314 313 314 316 316 315 315 314 315 314 314 314 314 316 317 317 316 315 314 315 316 317 317 316 318 314 314 317 314 314 318 316 316 317 314 314 315 314 315 318 318 316 314 314 315 316 317 318 318 318 317 317 317 317 317
310 310 310 311 311 310 311 311 310 309 308 307 307 306 307 307 307 308 308 308 310 310 311 314 312 311 311 312 314 315 315 316 315 313 312 315 318 317 316 315 315 315 314 314 315 316 317 317 316 317 315 314 316 317 317 316 315 317 314 313 317 314 313 316 315 315 316 315 315 315 315 317 318 318 316 314 314 315 315 317 318 318 318 318 318 317 317 317
311 311 311 311 312 312 312 311 311 309 308 307 307 307 307 308 308 309 309 310 311 311 313 315 312 310 311 312 313 314 316 318 316 313 312 314 316 316 316 316 316 316 316 316 316 317 317 316 315 317 316 316 317 317 315 312 311 315 315 313 316 316 312 313 315 315 314 315 316 316 316 317 317 318 317 315 315 315 316 317 317 318 318 318 318 318 317 317
312 311 311 311 312 312 312 311 311 309 308 307 308 309 309 309 310 311 312 311 311 311 310 310 310 310 310 309 312 315 317 317 315 313 313 313 314 315 316 317 316 317 316 316 316 317 317 316 317 318 317 316 316 316 313 311 311 313 315 312 312 315 313 312 315 315 314 315 316 316 316 317 317 317 318 317 316 316 317 317 317 317 317 318 318 318 318 318
313 312 311 311 311 311 311 311 311 310 308 308 309 310 311 312 311 313 314 312 310 309 310 310 310 310 310 311 315 316 316 316 314 315 314 313 314 314 316 317 317 317 316 315 316 316 317 317 317 317 316 315 316 315 314 314 313 314 316 314 312 313 313 314 316 314 314 316 316 316 316 316 317 317 317 317 318 317 318 317 317 317 317 317 317 318 318 319
315 314 313 313 312 311 311 311 311 310 309 310 313 313 312 312 311 311 312 311 310 310 311 311 310 310 312 314 316 315 315 315 314 316 315 313 314 315 316 316 317 317 315 316 317 316 317 318 317 316 316 317 316 316 316 315 314 314 315 314 314 314 313 315 317 314 314 314 315 316 316 316 317 317 317 317 317 317 317 318 318 318 318 317 317 318 318 318
316 316 315 315 314 313 312 311 311 310 309 311 315 314 309 310 311 311 311 309 311 312 311 312 312 312 314 316 316 315 315 315 315 316 315 313 315 315 315 315 316 315 316 318 318 316 316 316 316 316 317 317 317 316 316 315 314 314 315 314 314 314 314 316 317 314 314 314 314 315 316 316 317 316 316 317 316 316 317 317 318 318 318 318 318 319 319 319
317 317 316 316 316 315 313 312 312 310 310 311 313 313 310 311 311 312 312 309 311 313 312 312 312 312 313 315 315 315 316 315 315 316 315 314 315 315 314 315 315 315 317 316 315 315 315 315 316 316 316 316 316 316 315 315 316 315 315 315 314 316 316 315 316 315 314 314 314 315 315 315 316 316 316 316 316 316 317 317 318 318 318 318 318 319 320 319
318 318 317 316 316 315 314 314 313 311 311 313 315 314 312 311 309 308 311 311 312 312 312 311 311 311 313 314 314 314 315 314 315 316 315 314 315 315 315 314 314 316 317 315 314 314 314 314 315 316 315 315 315 315 315 315 316 317 317 315 314 317 316 312 313 315 314 314 314 315 316 316 317 317 317 317 317 317 318 318 319 320 319 319 320 319 319 319
320 319 318 317 316 315 315 315 314 313 313 313 315 314 310 310 309 309 313 312 310 312 312 312 311 311 313 313 314 314 314 314 315 316 315 315 315 314 315 314 314 316 315 314 314 313 314 315 314 314 314 314 315 315 316 315 314 317 319 316 314 316 315 313 315 316 315 315 315 316 315 315 317 319 319 319 320 319 319 319 319 320 320 320 321 321 320 320
320 320 319 318 316 316 315 315 316 315 313 312 312 311 309 311 309 309 312 311 309 311 311 312 312 312 312 313 314 315 313 312 314 316 316 315 314 313 314 314 315 315 314 314 314 313 315 314 313 316 315 315 316 315 316 316 313 314 319 319 315 314 316 317 318 317 313 313 316 317 313 311 316 319 319 318 319 318 318 319 319 319 320 320 320 320 321 321
320 320 320 319 317 316 315 317 318 314 313 314 313 309 310 312 310 309 311 309 310 311 310 310 312 311 311 313 315 314 311 311 313 316 317 315 314 313 313 314 314 314 314 315 314 315 315 313 314 317 316 318 319 315 318 318 312 312 318 320 318 317 318 318 318 316 312 312 317 317 313 311 314 315 316 317 316 316 317 318 319 319 320 321 321 322 321 321
320 320 320 319 318 317 317 319 317 313 315 316 311 308 311 312 310 310 310 309 311 313 311 309 309 310 312 314 314 311 310 312 313 314 315 314 314 313 313 314 313 313 315 315 313 315 315 314 316 318 318 319 318 316 319 318 313 315 318 319 318 318 319 319 319 316 314 316 317 317 317 316 315 315 316 317 316 317 317 317 318 319 320 320 322 322 321 321
319 319 319 319 318 318 318 317 315 315 315 313 309 309 312 311 311 311 308 309 313 314 312 310 308 310 312 313 312 310 310 312 314 314 314 313 314 313 312 314 313 313 315 314 312 314 316 317 317 318 317 317 317 318 320 317 315 318 318 318 318 319 320 320 319 316 318 319 316 318 320 316 314 315 317 318 316 317 317 317 318 317 320 321 321 321 321 320
318 319 318 319 318 318 318 316 316 318 315 311 309 309 311 311 311 311 308 310 314 313 311 310 309 310 312 311 310 310 310 312 315 315 313 312 313 313 312 314 314 314 314 313 315 316 316 314 316 317 317 317 317 316 318 318 317 317 317 317 319 319 319 319 319 316 318 318 316 319 320 313 311 312 316 319 316 316 318 316 317 319 321 323 322 323 321 319
317 319 318 318 318 316 317 317 317 318 315 311 309 309 311 312 311 309 310 313 314 313 310 310 311 311 311 310 310 310 311 313 314 313 313 313 313 313 312 312 314 315 315 314 316 316 313 311 313 316 317 316 315 313 315 318 317 317 318 319 319 319 319 318 318 317 316 316 316 319 318 312 310 311 315 319 316 315 317 314 317 321 321 323 324 323 320 318
316 318 318 317 317 316 317 319 319 319 315 310 309 310 312 314 311 309 311 313 314 314 311 310 312 312 310 311 311 311 312 314 314 313 314 313 313 313 312 312 313 315 316 315 316 316 315 314 314 315 314 314 315 314 314 315 317 319 319 317 317 317 318 317 317 319 316 315 316 318 317 314 310 311 315 319 316 316 317 315 316 319 320 322 324 323 319 317
315 317 317 317 317 316 317 319 319 318 313 309 311 312 312 313 312 313 313 311 312 315 313 313 314 312 311 312 313 311 312 315 314 314 315 314 314 314 313 314 314 314 314 314 316 317 317 317 316 314 312 314 316 316 315 315 317 319 317 315 315 314 316 317 318 320 317 315 316 316 318 317 313 312 315 317 316 316 317 317 317 319 319 319 322 324 323 319
313 316 316 316 317 316 317 318 318 317 312 311 314 314 314 314 313 314 312 310 313 315 315 315 314 313 312 312 313 313 313 314 314 315 316 316 316 315 314 314 314 315 315 314 316 317 317 318 317 315 313 313 316 316 315 315 316 317 316 316 314 312 314 317 318 318 316 316 315 315 317 318 314 314 317 316 316 317 317 317 319 319 320 320 320 322 323 322
311 314 316 317 317 317 316 316 316 315 311 312 316 316 316 316 314 313 313 313 315 314 314 315 314 314 313 314 315 313 313 314 315 315 317 317 317 317 316 315 315 317 316 315 316 317 316 317 317 317 315 314 316 317 316 316 316 316 316 316 315 312 313 314 314 314 315 315 314 314 317 316 314 315 317 317 317 317 318 318 319 320 320 320 321 321 321 322
308 312 315 316 316 316 316 316 315 313 311 314 317 315 315 316 315 313 313 316 316 314 315 315 314 314 315 315 315 313 313 315 316 316 317 317 317 317 317 316 316 317 316 314 315 316 316 316 318 317 315 315 317 318 317 317 316 316 318 318 317 315 312 312 313 314 314 314 315 315 316 315 315 315 316 316 316 316 317 318 318 319 319 319 320 321 322 321
307 310 312 315 316 316 316 316 315 313 313 316 315 314 314 316 317 317 316 316 316 316 315 315 315 315 315 315 314 313 313 316 317 316 317 317 317 317 317 317 316 315 316 314 314 315 315 316 319 317 315 314 315 317 318 317 316 317 318 319 318 318 315 313 314 314 313 313 314 314 315 314 313 314 315 315 315 315 316 317 318 318 319 320 323 325 326 325
309 310 311 313 315 316 316 316 314 312 314 317 316 314 315 316 317 319 318 316 315 316 316 316 316 316 315 316 315 314 314 315 317 316 316 317 317 317 317 318 316 315 315 314 314 316 314 315 316 315 316 314 312 315 316 316 317 318 318 317 316 317 315 314 314 315 315 315 314 313 313 313 312 313 317 316 315 315 315 316 316 317 317 320 324 326 328 328
309 310 310 311 314 315 316 315 314 312 314 316 316 316 315 315 317 318 317 315 315 316 316 316 316 316 317 316 316 315 314 314 316 316 316 316 315 316 317 317 317 316 315 313 313 315 315 315 315 313 316 315 312 314 316 314 315 316 317 317 316 316 316 314 315 316 316 317 316 314 314 313 312 312 314 315 315 316 316 316 317 317 317 319 321 323 326 327
308 308 308 309 311 314 315 314 313 313 314 315 315 316 314 314 316 317 315 315 315 316 315 315 316 317 318 317 316 316 314 315 317 316 316 317 316 316 316 317 317 316 315 314 313 314 314 314 315 312 313 315 313 314 316 316 315 314 315 316 316 317 316 315 316 314 314 315 316 316 315 314 314 314 314 315 315 315 315 316 317 316 317 319 320 323 328 327
307 307 308 308 308 312 314 313 312 314 315 314 314 315 315 314 315 316 315 315 317 318 318 318 317 316 317 318 318 317 315 315 317 316 316 316 316 317 315 315 317 316 315 314 314 314 314 313 315 314 312 315 315 315 316 316 316 314 314 315 316 317 315 315 316 315 315 315 315 315 315 313 313 315 315 315 315 316 316 316 317 318 318 319 322 326 329 325
306 305 307 309 310 312 313 313 313 315 315 314 314 314 315 316 315 316 315 314 316 318 318 319 319 318 318 318 317 318 317 316 317 317 317 316 316 317 316 315 316 316 315 315 315 315 314 313 314 315 314 315 316 317 317 317 317 316 314 315 316 316 316 316 317 317 316 316 315 315 315 314 314 316 315 314 315 315 315 316 316 318 318 319 325 329 326 321
304 304 306 310 311 312 314 313 315 316 315 315 314 314 315 315 315 316 314 313 315 317 317 317 319 319 319 319 318 317 317 318 318 318 318 317 316 317 316 315 315 316 315 316 316 315 315 314 314 315 316 317 317 317 316 316 317 318 317 316 316 316 316 316 317 317 316 317 317 316 317 316 316 316 316 315 317 316 316 317 316 317 318 321 326 326 322 319
303 303 307 310 311 312 313 312 314 315 314 314 314 315 315 315 314 316 315 313 314 315 316 316 317 318 319 319 319 318 319 319 319 317 317 318 317 317 316 314 315 316 315 316 316 315 315 314 314 315 315 317 317 315 314 314 315 317 318 317 317 317 317 316 316 316 317 318 317 316 317 317 317 320 320 320 321 322 320 320 319 319 321 322 324 324 322 320
302 303 305 309 311 312 312 310 311 312 313 313 314 315 315 314 314 315 316 314 314 314 315 315 316 317 317 318 319 319 320 320 318 317 316 316 317 318 317 315 315 315 315 317 317 315 315 316 315 315 315 317 318 317 316 315 315 316 317 317 318 318 318 318 316 315 317 319 318 318 317 316 318 322 322 319 320 320 319 318 318 321 324 324 324 323 322 320
303 303 304 308 310 311 311 310 309 310 311 312 313 314 315 314 314 315 315 315 314 314 315 315 315 315 316 317 318 319 319 319 319 318 317 316 317 319 319 318 316 314 315 319 319 316 317 318 316 316 317 318 320 320 319 317 315 315 316 317 318 318 319 319 318 317 318 319 319 319 317 315 316 318 318 316 317 317 316 317 317 318 320 322 323 323 321 320
303 302 303 306 307 309 310 310 309 310 310 311 312 313 313 314 314 314 314 315 315 315 315 315 315 315 315 316 317 317 317 318 318 319 318 317 317 318 318 319 318 316 316 319 318 318 321 320 316 316 317 317 319 320 320 318 316 316 317 317 318 318 319 319 318 318 318 318 318 318 317 317 316 316 316 316 316 316 316 317 317 317 318 321 321 321 319 318
303 302 302 304 306 307 309 310 310 310 310 310 310 311 312 313 313 314 314 314 315 315 315 315 315 315 315 315 315 316 316 317 317 318 318 317 317 317 316 315 316 316 315 316 318 319 320 319 317 318 317 316 317 318 319 319 318 318 319 319 318 319 320 321 320 318 317 318 318 317 318 319 318 315 316 316 316 316 316 316 317 317 319 321 321 320 319 317
302 303 302 303 305 306 308 310 309 309 310 309 309 310 311 311 312 313 314 314 314 314 315 316 315 316 315 315 316 316 316 317 317 317 317 317 317 317 316 315 315 315 314 316 319 319 318 317 317 318 318 317 316 317 317 318 319 318 319 319 319 319 320 320 320 318 318 318 318 318 318 319 318 316 316 316 316 316 316 316 317 317 319 320 321 321 322 320
302 303 303 303 305 306 308 309 309 309 309 309 310 310 310 310 310 311 313 314 314 314 314 315 315 315 315 315 315 316 317 317 318 318 317 317 317 317 317 316 315 313 314 317 319 318 316 316 316 317 318 318 317 317 317 318 319 319 319 319 319 320 320 319 318 318 318 318 317 317 318 318 317 316 316 316 316 316 317 316 317 317 318 319 319 321 321 320
301 302 303 304 304 305 306 307 309 310 310 309 310 311 310 310 310 310 311 313 314 314 313 314 315 314 315 315 315 315 316 316 317 317 316 316 317 317 317 317 315 313 313 315 317 316 315 316 317 317 318 318 317 317 318 318 319 320 319 319 318 319 320 320 319 318 319 319 318 318 319 318 317 316 316 316 317 317 317 317 316 317 317 317 318 319 319 319
302 302 303 303 303 304 305 306 307 309 310 310 310 310 310 309 309 309 311 312 313 313 313 313 313 314 314 314 315 315 315 315 316 316 316 316 316 316 316 316 316 314 311 312 315 315 315 316 317 317 317 318 318 317 318 318 319 320 320 319 318 318 319 320 320 319 319 319 319 320 320 319 317 316 317 317 317 317 317 317 317 317 318 317 317 317 317 318
302 302 302 302 303 303 303 304 306 307 309 309 309 309 309 309 309 309 311 311 311 312 312 312 313 314 314 314 314 313 314 315 314 313 314 315 315 315 315 315 317 316 312 311 312 313 314 314 315 316 318 319 319 318 318 318 320 320 319 318 318 318 318 318 319 319 319 318 319 319 319 318 317 317 317 317 317 317 317 317 318 318 318 317 317 317 317 317
Wind_Speed
8 8 6 5 4 3 3 3 2 3 3 3 4 5 6 6 6 6 7 7 7 7 8 8 8 7 7 6 5 5 4 3 5 8 7 2 4 5 4 3 1 1 2 3 6 6 5 6 6 5 5 4 1 1 2 1 1 3 4 5 5 4 3 4 5 2 1 3 7 9 10 9 7 7 4 2 5 7 4 6 6 5 5 3 8 10 11 12
9 7 6 5 4 4 3 3 3 3 4 5 5 6 6 7 6 7 7 7 7 7 8 8 8 8 7 6 5 4 4 4 6 7 4 4 6 5 4 3 2 1 2 2 6 8 6 6 7 7 5 4 1 1 3 0 1 4 3 5 4 1 2 1 1 2 2 1 6 9 9 8 4 7 7 5 8 9 9 9 9 9 8 8 11 11 12 13
8 7 6 6 5 4 4 3 3 5 6 6 6 6 7 7 7 7 8 8 8 8 8 8 8 8 7 6 4 4 3 4 6 5 5 7 6 5 4 3 2 2 2 1 4 7 5 3 7 7 5 4 2 3 4 1 1 2 2 5 2 3 4 3 2 4 5 4 3 8 7 6 2 4 7 6 9 9 10 9 9 10 11 11 13 13 14 14
8 8 7 6 5 4 3 3 4 5 6 6 6 6 7 7 7 8 9 9 9 9 9 9 8 8 7 6 5 4 4 5 5 5 7 8 6 5 4 4 3 2 2 1 3 4 4 4 7 6 5 4 3 4 5 2 1 2 2 3 2 2 2 3 3 5 6 4 1 6 5 6 3 2 5 6 9 8 9 11 10 10 10 11 14 14 15 15
10 9 7 7 6 4 4 3 3 4 5 5 5 5 6 6 7 8 9 9 9 10 9 9 9 8 7 6 6 4 3 5 3 5 9 9 6 5 4 4 3 2 2 2 2 3 4 6 6 5 5 4 5 5 4 3 1 2 2 2 4 1 1 3 3 4 4 3 1 5 4 4 4 3 7 8 10 6 2 4 6 4 2 4 13 14 14 15
11 9 8 7 6 4 4 3 3 3 3 4 5 5 6 6 7 8 9 9 10 10 10 10 9 8 7 6 6 4 4 3 3 4 10 10 6 5 4 4 3 3 2 2 3 4 5 7 7 6 5 4 6 5 4 3 1 2 2 3 4 3 3 3 2 3 2 1 1 2 1 2 3 6 7 10 14 6 5 6 4 5 5 4 10 13 13 14
13 11 9 7 6 5 4 4 4 3 3 3 4 5 6 6 6 7 8 9 10 10 10 10 9 8 7 5 3 4 6 1 3 5 10 9 7 5 4 4 3 3 1 3 5 6 6 8 7 5 4 4 5 4 4 4 3 3 2 5 3 4 4 3 3 2 1 1 1 2 2 2 7 6 3 8 15 11 1 5 4 4 4 2 6 11 12 13
16 14 11 9 8 6 5 5 4 4 4 4 4 5 7 6 6 6 8 8 9 10 10 9 9 7 7 5 2 5 6 1 3 6 9 9 6 4 3 3 3 2 1 3 3 4 6 7 6 5 4 2 3 5 4 5 4 4 3 6 3 3 4 4 3 3 2 0 2 2 4 5 4 2 4 11 14 13 7 5 4 2 2 3 6 9 10 12
17 16 12 10 9 7 6 5 5 4 4 5 5 6 7 6 5 6 7 7 8 9 9 9 8 6 7 5 4 5 3 3 4 8 9 8 5 3 2 2 1 1 2 2 2 4 4 5 4 3 2 3 3 5 3 4 2 1 5 6 5 5 4 4 4 4 2 1 0 3 6 3 1 2 8 16 15 8 5 5 5 5 6 7 7 9 10 11
17 15 13 11 9 8 7 6 5 4 5 5 5 5 6 6 6 6 6 7 8 8 8 8 7 6 7 5 6 5 2 4 6 8 8 7 5 3 1 0 1 1 2 1 1 2 3 2 3 1 1 4 3 3 1 2 1 4 7 6 5 5 4 3 4 5 2 2 2 5 6 3 3 1 9 9 5 4 5 7 7 7 9 10 9 9 10 11
16 15 14 11 10 8 7 6 5 5 4 3 4 4 5 6 6 7 7 7 7 7 8 7 7 6 5 6 7 4 3 4 7 8 8 7 5 3 1 2 1 1 1 2 2 3 3 2 4 1 0 4 5 4 2 1 1 4 6 6 6 5 5 4 4 5 3 2 2 5 6 7 3 4 13 6 4 4 6 8 8 8 9 10 10 9 8 10
14 14 14 12 10 9 7 6 5 4 3 3 4 4 5 5 6 7 7 8 8 8 8 7 7 6 3 6 5 1 4 4 7 9 7 6 5 3 2 2 2 1 1 2 4 4 4 3 0 0 2 4 6 5 3 1 1 4 5 5 7 5 5 7 5 4 3 2 2 2 5 11 9 13 18 8 6 4 5 7 8 9 9 8 9 8 7 9
12 13 13 11 10 8 7 6 4 3 2 3 3 3 4 4 5 6 7 8 8 8 8 7 7 5 4 4 1 4 4 5 8 8 7 6 5 4 4 3 4 2 1 5 5 4 4 3 4 1 3 1 3 3 4 4 2 5 4 3 4 5 6 7 5 4 3 2 4 2 5 8 10 17 15 5 6 5 6 9 9 9 8 8 8 8 8 9
12 12 12 11 10 8 7 5 4 3 2 2 2 3 4 4 5 6 7 8 8 8 8 7 7 5 4 2 3 3 5 7 7 7 8 8 6 7 7 6 6 6 7 9 8 6 6 3 1 4 3 3 4 3 5 5 3 4 3 3 3 4 3 7 5 5 5 3 4 4 5 7 8 7 5 5 5 6 9 11 10 10 8 7 7 8 8 9
12 11 11 9 8 7 6 5 4 3 3 2 2 3 3 4 5 6 7 7 7 7 6 6 6 4 4 2 2 3 5 6 5 6 10 10 7 6 7 8 10 10 11 12 10 9 7 3 1 5 3 2 4 5 5 5 4 3 3 3 4 3 3 6 4 5 5 2 6 6 5 8 9 1 6 3 2 5 10 11 10 10 9 8 7 7 8 9
12 10 9 7 6 5 5 4 3 3 3 3 3 3 3 4 5 6 7 6 5 5 3 3 5 4 4 3 3 3 4 4 6 8 11 10 5 6 8 9 10 8 8 10 9 8 5 3 1 1 2 2 5 5 4 4 4 4 5 3 4 5 4 5 4 3 2 2 7 10 6 6 4 2 5 3 3 5 8 10 10 10 9 8 7 7 7 8
11 9 8 8 6 5 5 4 3 3 3 3 3 3 4 4 5 5 5 6 4 3 1 1 2 4 3 3 3 4 5 5 7 8 10 9 6 8 9 7 6 6 7 6 5 4 2 2 1 1 2 4 5 4 4 5 5 5 5 4 3 5 4 2 4 4 3 3 6 10 10 11 9 6 4 6 7 7 8 9 10 10 9 9 7 7 8 8
9 8 8 8 7 6 6 4 3 3 3 4 4 4 5 5 6 6 5 6 5 4 0 2 1 3 3 4 3 4 6 7 8 8 9 8 8 8 4 3 6 7 7 5 2 2 1 1 2 2 3 4 4 5 6 3 3 4 5 4 4 5 6 4 2 4 4 5 7 9 11 14 15 14 13 11 10 11 11 12 12 12 12 11 10 10 10 10
9 8 6 7 8 7 6 5 4 3 3 4 6 8 8 7 7 5 3 4 4 3 1 3 6 3 2 6 5 6 8 9 8 7 6 7 9 7 2 4 7 5 5 4 3 2 1 3 3 3 5 6 7 8 5 1 3 1 1 3 3 3 4 3 4 3 2 4 7 11 12 15 15 14 14 14 13 14 15 14 12 11 11 11 12 12 12 12
9 7 5 5 5 5 5 5 5 4 4 6 8 8 6 6 5 4 4 4 4 0 3 0 4 1 3 6 7 9 10 7 5 4 6 9 9 7 5 5 5 4 5 3 3 2 1 3 5 6 6 6 9 6 0 4 4 2 1 3 3 3 2 2 5 4 1 4 8 10 12 16 16 14 14 14 14 16 16 16 14 12 11 11 12 14 14 14
10 8 6 5 4 4 3 3 4 4 6 9 8 4 2 4 4 3 5 6 3 2 3 3 3 3 3 5 8 9 6 3 2 3 7 9 7 7 7 6 6 6 3 3 4 2 2 5 7 6 2 1 2 2 1 1 2 2 3 3 3 4 3 3 5 3 2 2 7 9 12 16 17 14 13 13 15 17 17 16 16 15 13 12 13 16 14 12
11 10 8 6 4 4 3 1 3 4 6 9 8 5 3 2 1 2 2 5 3 2 0 1 1 2 4 3 6 4 2 4 5 5 7 8 7 6 7 8 9 7 5 5 3 3 4 7 7 3 4 5 3 2 2 3 3 3 3 3 3 2 2 3 5 2 2 2 6 9 10 15 18 17 15 15 16 17 17 16 15 14 14 13 14 14 12 11
12 11 9 8 6 4 2 1 1 2 4 6 6 5 3 1 2 2 1 3 3 2 3 3 3 4 4 2 5 5 4 6 6 8 9 9 7 4 6 10 10 6 7 8 7 5 5 5 3 4 5 4 2 3 4 3 3 4 3 4 3 0 1 1 2 2 4 4 7 11 10 12 16 16 15 16 16 16 16 15 14 13 13 15 14 12 11 12
13 12 10 9 8 6 4 2 1 1 4 6 7 6 4 4 3 1 2 2 2 2 2 2 2 4 5 3 6 8 4 1 3 9 10 9 6 3 5 9 10 7 7 10 10 9 5 2 3 4 4 5 4 4 5 4 4 6 6 6 5 3 3 2 2 3 5 6 5 9 9 8 10 12 11 8 8 10 12 11 12 12 12 13 13 12 13 14
15 14 13 11 9 8 5 3 2 2 4 5 8 9 7 6 3 0 1 2 3 2 1 2 2 4 5 5 7 6 2 1 1 5 10 8 4 4 4 3 5 8 9 10 10 10 4 4 3 5 4 5 6 6 6 6 5 5 7 7 8 7 5 3 4 6 5 4 2 3 7 5 4 7 9 5 4 8 9 9 11 11 11 11 11 11 11 12
17 15 15 14 11 10 5 2 1 2 3 3 7 10 9 6 2 0 1 3 4 3 3 5 5 6 8 7 7 4 1 4 2 4 7 4 2 1 3 2 1 5 7 7 5 5 2 4 4 5 6 6 5 5 6 6 6 4 2 3 6 6 4 4 5 4 4 4 1 2 6 6 5 9 12 11 12 14 12 10 12 11 9 10 9 9 8 8
17 17 17 16 15 12 4 0 3 3 2 2 7 11 9 6 2 1 2 4 5 5 6 3 2 6 8 6 8 6 3 4 6 3 3 2 1 0 2 6 4 2 3 4 3 2 5 6 5 5 6 6 6 5 6 8 7 2 1 3 0 2 2 2 3 4 4 7 3 6 5 8 8 9 13 14 14 15 13 11 11 11 10 10 8 6 6 5
13 16 18 18 18 15 5 1 4 3 2 3 6 12 10 7 2 1 3 5 3 5 4 2 2 5 6 4 5 4 1 5 6 3 3 2 1 1 4 7 7 7 7 6 5 2 5 7 8 9 8 6 5 1 5 11 6 1 2 3 4 3 0 1 2 4 3 6 6 5 5 7 8 5 9 12 13 12 12 11 12 12 8 6 5 4 2 2
7 13 17 18 19 18 9 2 3 3 4 3 6 13 9 5 3 1 4 5 2 4 2 3 4 4 6 6 4 3 3 2 0 2 4 1 1 1 3 5 6 8 9 7 5 1 2 2 4 7 7 5 3 6 2 6 4 3 5 5 6 4 2 2 2 4 2 6 7 6 8 5 10 6 7 8 8 9 10 10 10 7 3 4 3 2 2 2
5 10 16 19 20 20 14 7 7 7 4 2 6 11 7 2 3 5 6 5 3 3 2 3 4 7 11 10 6 4 4 2 3 5 5 3 3 1 1 1 3 4 5 5 4 2 3 2 1 3 2 1 6 7 5 2 4 7 7 5 5 3 2 1 2 1 3 7 5 6 10 5 8 8 5 7 7 9 8 7 6 3 6 5 4 4 3 3
6 7 14 22 23 22 13 6 12 11 4 3 7 9 5 2 3 8 7 1 1 3 4 4 6 10 15 14 8 6 5 4 6 9 6 4 5 4 3 3 1 2 3 5 4 3 3 2 1 1 1 3 7 6 5 4 4 5 5 4 3 2 2 2 3 2 5 7 0 3 5 6 7 7 4 6 6 8 5 5 5 2 4 3 3 5 4 3
7 7 13 23 24 22 14 6 12 12 3 5 9 6 4 4 4 8 6 3 1 6 7 7 8 11 15 14 9 8 8 6 7 10 8 7 7 7 9 8 6 5 6 7 6 3 3 5 5 3 0 4 7 6 4 2 3 4 4 6 4 3 4 4 5 4 6 5 2 2 1 5 11 13 6 4 5 7 6 5 6 5 4 4 2 3 4 4
7 7 12 22 24 22 17 8 9 11 7 7 6 4 4 5 6 9 9 5 1 3 5 6 9 11 15 13 8 10 8 6 9 9 7 9 8 9 11 11 11 8 5 6 7 4 3 3 6 6 2 5 8 6 5 4 6 8 7 7 6 5 5 7 6 5 5 3 2 2 1 4 11 11 10 13 12 10 10 8 7 6 7 9 6 2 2 4
5 7 8 18 24 22 20 13 7 10 10 7 2 3 5 8 9 10 11 6 2 3 4 7 10 11 12 8 6 10 7 5 10 9 7 8 7 8 10 12 13 9 3 4 6 7 7 4 8 10 5 8 12 9 7 7 8 10 8 7 7 6 7 7 5 6 6 2 1 3 3 5 7 3 2 4 5 5 6 6 6 6 7 7 5 5 6 5
2 6 6 11 19 21 20 16 10 11 13 9 3 3 7 10 8 9 10 5 4 5 5 8 10 9 9 2 1 7 3 2 9 8 6 9 8 8 10 10 13 11 6 6 4 6 9 6 8 8 5 14 14 8 6 6 6 7 5 6 8 5 6 5 2 1 2 2 2 4 4 6 6 8 9 7 4 5 5 5 5 7 7 5 4 6 8 5
1 3 5 7 12 19 21 17 14 15 13 7 4 5 9 8 3 3 4 3 5 8 10 9 8 7 8 4 2 6 1 0 8 7 5 9 9 10 10 9 13 15 11 8 3 4 6 3 6 5 3 11 8 2 4 3 3 5 5 6 3 2 2 5 2 3 2 5 6 5 7 8 8 14 15 13 14 13 11 9 8 8 7 5 4 7 6 3
1 2 5 6 8 15 20 18 17 17 11 4 5 6 6 5 2 2 2 2 6 12 11 8 7 7 9 7 5 9 5 3 8 7 6 7 6 10 12 8 11 16 15 11 5 4 5 2 2 4 4 4 1 2 2 2 2 3 5 5 3 4 1 4 5 2 3 8 6 6 11 10 8 9 5 4 10 12 11 11 9 9 9 7 7 9 5 4
2 3 4 8 10 12 16 20 19 13 5 2 5 5 4 4 3 1 3 2 5 11 9 7 7 8 9 9 8 11 9 6 9 8 6 6 5 10 13 8 8 14 17 14 7 3 4 4 2 1 1 3 3 1 3 1 1 1 1 1 2 2 4 5 6 5 6 9 6 8 12 10 10 11 6 3 6 7 7 9 8 8 9 8 8 9 4 5
2 3 3 8 14 13 15 20 17 8 2 3 5 5 5 4 3 2 3 4 1 6 9 9 8 7 8 8 8 11 11 9 10 8 7 7 5 8 12 9 8 12 15 15 10 3 3 6 3 1 1 3 5 5 7 5 3 1 3 2 2 2 4 4 5 5 6 8 6 8 10 9 11 11 11 13 12 11 11 9 8 8 8 8 7 6 1 4
4 3 2 8 14 16 18 17 11 4 3 4 4 4 5 5 5 5 5 3 3 2 3 5 8 8 8 7 6 9 10 10 10 8 7 8 6 5 9 10 7 8 12 14 11 5 4 5 4 1 0 2 5 8 10 9 8 6 6 6 5 3 1 2 4 4 5 6 6 7 8 10 11 7 10 15 12 11 10 7 6 6 6 7 6 2 0 0
5 4 2 9 16 19 18 11 4 4 5 4 5 6 6 6 6 8 6 1 2 2 2 1 2 3 4 5 6 7 8 9 9 8 7 9 9 5 5 9 8 9 9 10 10 8 6 6 6 4 4 6 6 6 7 8 8 9 9 10 10 8 5 4 6 5 3 4 6 6 7 13 11 2 6 12 8 6 5 4 5 4 6 7 3 1 1 1
5 4 2 11 21 22 15 7 5 5 6 7 7 8 7 5 6 9 7 3 2 2 2 1 0 0 2 2 2 2 4 6 8 9 7 8 11 7 3 5 8 11 9 6 7 8 3 3 7 5 5 6 3 3 1 2 2 5 6 7 9 8 8 8 7 4 3 3 4 5 8 15 10 2 1 5 2 2 2 2 5 5 6 5 0 2 1 2
6 5 2 9 23 23 12 7 8 6 7 8 8 8 8 6 6 8 7 6 5 3 2 3 3 4 4 3 1 1 1 3 5 7 6 6 8 5 3 4 6 9 8 4 4 5 2 2 6 6 5 4 4 3 2 3 2 5 5 3 4 7 9 7 4 2 3 5 5 5 8 14 8 3 1 1 2 1 0 2 5 5 4 3 0 0 1 2
5 5 0 6 21 21 10 8 11 9 9 9 8 9 8 6 8 8 9 9 8 5 6 5 5 6 6 5 4 3 2 2 3 5 5 5 4 1 3 6 7 6 6 3 3 5 4 3 5 5 6 6 5 4 3 2 2 5 6 5 6 9 8 3 0 2 4 8 11 9 8 13 8 4 4 3 3 3 4 3 4 4 3 2 1 1 1 2
5 5 3 6 14 13 6 6 8 9 12 12 11 11 10 7 8 10 10 10 9 7 7 7 8 9 6 5 6 7 6 6 4 3 4 6 3 3 1 4 7 8 6 1 2 4 4 3 5 6 8 8 8 5 3 5 5 4 7 11 12 13 11 6 2 4 8 12 13 10 9 15 15 7 4 4 5 6 6 5 5 4 4 3 2 2 2 2
5 5 5 6 8 7 4 3 5 7 11 13 11 11 14 11 8 9 11 9 9 9 8 7 10 10 8 8 8 9 10 11 8 5 4 5 4 0 1 1 5 7 4 3 4 4 1 1 5 8 10 10 9 3 4 7 7 7 10 13 14 14 14 10 5 8 11 11 11 12 13 18 23 21 16 9 5 5 5 5 5 4 4 4 3 2 2 4
5 6 7 7 6 6 6 6 8 8 9 12 10 9 14 16 10 8 9 9 9 10 8 7 10 11 10 12 11 10 12 13 12 10 8 7 4 1 2 1 3 4 2 3 3 3 3 2 7 10 12 15 15 11 4 6 9 11 13 13 14 14 14 12 11 14 14 10 11 14 15 17 22 26 24 17 12 11 9 9 9 7 5 4 2 2 4 6
6 6 7 8 6 7 8 9 13 15 14 13 11 10 14 17 14 11 9 7 8 10 8 8 12 16 16 15 11 9 12 13 13 13 11 9 6 3 3 2 1 2 4 2 1 2 3 5 9 11 14 18 19 19 15 11 11 12 13 13 15 16 16 15 16 19 17 12 13 15 15 17 19 25 26 18 14 16 16 13 12 11 6 4 3 4 5 6
6 4 5 6 6 7 8 8 12 17 17 14 11 11 14 17 18 15 10 8 9 11 10 11 14 18 19 18 13 11 12 12 10 11 10 9 8 6 4 3 1 2 3 3 1 1 3 6 10 12 13 16 19 20 19 17 16 14 14 13 13 16 19 20 20 21 20 17 16 18 22 22 20 24 26 20 16 17 17 14 12 12 9 6 6 6 7 9
7 4 3 4 5 6 7 8 10 12 13 12 10 11 12 16 18 15 11 10 9 9 12 16 17 17 18 20 17 14 13 12 11 11 10 10 9 7 5 5 3 1 1 3 1 1 2 4 5 6 7 12 16 18 18 17 14 13 13 14 15 17 19 20 19 16 15 17 20 22 23 21 19 20 22 22 19 16 17 18 16 14 12 10 9 11 12 13
9 4 2 4 6 8 7 8 10 10 9 9 10 11 13 17 17 13 11 12 12 10 13 17 18 14 13 17 19 16 15 14 14 11 8 8 7 6 6 6 6 4 2 3 2 2 4 3 1 0 5 9 11 14 16 14 11 10 12 15 18 20 17 15 13 13 14 17 19 19 17 15 17 17 16 20 22 19 18 21 18 14 12 12 13 15 16 15
11 4 3 3 6 9 8 7 9 11 8 8 11 12 12 15 17 14 9 8 11 11 11 14 15 11 10 15 16 12 8 8 8 6 3 4 5 4 5 6 7 5 5 5 2 3 5 4 1 3 5 7 11 13 11 10 8 8 12 17 19 18 16 13 12 16 20 17 14 13 12 14 17 18 17 21 23 19 18 18 16 13 13 14 16 16 16 17
Wind_Direction
208 198 185 195 191 191 202 208 222 221 222 220 217 212 206 205 201 205 205 208 210 206 208 207 216 223 232 246 248 258 247 219 201 206 218 192 147 150 149 136 140 180 180 179 184 201 209 199 181 181 185 166 199 140 152 339 331 239 215 222 231 213 197 169 190 187 40 112 141 160 172 189 174 166 173 144 222 233 221 218 211 200 212 148 114 125 136 145
212 207 191 194 193 196 199 200 225 225 218 214 215 212 209 208 204 208 206 208 210 207 209 207 216 222 232 242 240 252 231 210 221 216 204 169 158 141 125 115 104 134 149 168 201 210 213 189 173 192 196 171 187 172 184 190 259 236 221 229 236 192 93 80 233 120 38 1 145 156 180 197 179 159 163 201 219 212 227 228 212 220 215 167 143 146 147 154
206 209 198 195 199 206 201 202 227 228 222 218 215 211 210 211 205 206 208 208 207 207 207 209 216 221 232 236 236 239 205 211 225 201 172 171 154 127 117 102 88 115 159 226 242 234 248 195 177 198 195 177 175 183 196 180 246 242 242 236 207 84 87 53 7 79 54 11 149 156 172 192 173 137 158 214 235 215 226 233 215 219 219 190 167 162 160 163
202 209 202 198 206 207 206 218 239 236 231 228 223 219 213 213 210 207 208 207 206 205 205 208 211 217 227 228 232 220 191 218 211 152 166 170 144 129 111 84 81 82 135 209 246 242 253 189 183 206 201 180 150 185 191 136 255 191 223 262 46 75 117 78 54 66 53 19 153 140 150 197 173 139 185 222 241 229 232 236 226 225 231 199 170 164 167 170
201 212 208 204 210 209 213 222 246 247 240 236 229 225 218 215 215 208 209 209 206 204 204 206 207 215 219 221 224 201 199 220 158 130 166 166 143 130 102 80 71 57 112 173 213 210 211 191 185 201 208 179 160 188 176 112 277 195 182 12 35 345 99 87 73 50 38 25 102 137 157 186 142 189 222 229 238 236 263 259 235 229 275 152 156 164 171 178
206 216 213 210 216 214 212 212 223 236 243 240 225 219 219 218 216 211 211 209 206 204 204 205 205 212 211 217 218 198 227 217 95 148 165 160 146 127 94 74 53 52 98 224 226 210 207 197 191 195 204 179 175 185 136 128 243 238 155 94 50 9 56 96 86 43 2 8 128 146 102 111 175 227 224 231 240 244 48 42 30 52 56 95 152 165 175 185
217 223 220 211 212 214 216 215 217 226 238 233 227 223 218 216 215 213 212 209 208 204 204 205 205 211 205 197 188 205 240 230 94 175 163 159 151 125 89 62 35 45 37 253 221 206 203 203 202 199 191 167 178 163 117 148 220 262 154 121 81 41 73 81 73 76 12 346 16 12 348 245 230 237 228 237 243 247 224 90 72 65 82 124 171 176 186 194
222 227 226 214 210 214 217 220 225 236 230 211 220 229 214 209 212 213 214 211 208 203 204 206 203 209 197 182 185 216 228 151 132 178 165 164 154 128 87 46 14 22 279 253 239 221 210 210 201 197 192 149 153 143 140 175 200 251 140 123 121 82 94 86 90 118 109 319 356 331 258 248 244 306 292 253 249 248 233 156 145 155 156 190 200 198 198 201
227 227 222 217 214 215 220 225 228 236 235 215 217 223 205 198 203 205 208 207 205 202 202 203 203 206 192 191 243 227 198 117 162 177 167 167 157 130 84 39 0 288 223 222 271 246 220 214 188 202 182 100 143 144 168 210 188 146 126 129 136 116 107 110 122 123 125 188 127 230 239 233 123 352 272 253 251 240 204 189 197 208 223 223 215 215 210 207
233 227 214 213 215 214 221 225 223 233 242 231 222 216 199 192 193 194 197 198 199 198 199 202 199 192 188 203 232 219 113 108 162 171 167 165 152 127 92 249 192 241 225 160 261 260 258 239 125 185 62 104 150 135 166 258 81 107 127 127 126 127 125 141 144 133 158 168 178 240 250 233 144 217 254 247 241 186 183 220 219 220 235 234 226 221 218 217
234 222 207 210 213 211 216 219 223 227 222 223 230 225 211 197 187 185 188 189 190 194 198 199 191 183 196 227 229 210 94 115 159 165 162 160 151 141 167 209 156 230 252 109 63 1 342 48 102 173 176 136 143 105 67 5 94 128 140 135 130 139 140 164 166 146 189 165 177 258 277 262 194 212 247 232 108 155 202 224 216 223 236 234 233 226 219 222
223 207 202 208 210 209 211 214 217 208 184 200 237 234 218 204 191 185 182 183 184 190 193 190 189 181 206 238 238 142 109 128 155 160 160 156 149 149 167 178 149 166 320 101 82 43 59 68 44 262 71 154 152 115 114 130 148 146 175 175 151 178 181 178 166 138 216 174 127 282 277 256 225 228 245 216 141 170 208 232 225 226 233 229 232 226 220 222
208 196 199 205 207 205 204 207 205 189 174 206 232 217 207 206 199 189 182 183 182 185 188 186 185 184 220 230 140 98 119 134 147 151 153 146 131 131 138 133 121 124 108 108 98 82 95 45 316 56 59 201 141 105 134 138 182 159 198 243 163 202 200 174 158 138 209 152 119 242 266 255 228 229 236 179 157 199 227 245 243 237 234 228 225 222 225 222
201 196 197 200 203 201 200 204 199 188 191 205 200 192 197 202 201 192 188 185 185 189 187 185 182 188 226 204 98 130 136 129 137 142 149 142 119 110 111 110 108 114 115 105 95 90 89 48 11 118 54 0 105 143 157 145 201 171 176 247 206 224 168 149 157 167 194 156 144 213 255 269 266 229 182 128 174 219 245 251 249 247 238 228 222 221 228 225
194 192 192 194 195 193 197 198 194 190 185 170 165 184 189 197 196 190 192 188 190 194 188 193 187 196 228 183 117 170 145 132 144 155 154 144 133 123 111 108 106 104 105 99 91 82 73 47 150 129 81 41 143 175 167 155 197 181 188 208 202 229 144 136 155 182 198 152 170 203 249 260 265 199 102 102 197 214 246 255 255 255 248 240 231 226 233 232
182 181 180 181 179 176 174 169 172 179 176 165 165 173 170 181 186 186 189 184 189 185 173 197 192 227 250 160 129 167 163 170 171 169 162 149 141 135 125 115 105 98 97 92 88 80 59 47 48 93 108 158 192 194 177 180 191 191 230 220 175 210 191 147 150 179 187 136 185 212 252 266 247 116 112 152 206 220 243 255 257 257 253 248 242 235 237 237
176 178 178 175 171 165 156 155 166 170 173 169 164 158 155 160 165 170 169 164 157 143 160 281 205 237 263 117 138 176 164 173 173 172 172 160 138 135 137 126 113 113 112 102 98 93 50 72 107 237 197 207 215 208 200 207 206 191 218 236 195 214 229 187 146 142 171 204 217 219 239 259 262 272 242 187 190 212 236 251 256 259 258 256 252 243 240 239
173 179 186 180 175 169 163 170 176 176 172 166 156 136 134 133 135 136 136 139 114 92 280 304 215 226 223 160 156 132 130 149 163 169 177 168 150 150 156 143 142 145 142 138 155 168 127 146 214 217 191 214 209 207 213 220 243 205 194 223 223 215 235 247 158 139 176 211 238 237 242 254 258 265 265 247 226 224 239 251 254 256 258 260 259 253 248 243
175 177 182 173 177 179 176 184 188 183 166 149 135 118 111 111 118 125 135 157 155 153 205 192 186 206 163 148 117 90 115 137 147 153 167 163 157 163 165 152 160 174 177 175 168 164 173 176 206 223 201 207 206 215 229 31 12 343 167 250 252 235 233 216 105 110 194 234 244 246 254 262 260 260 263 263 256 251 255 256 255 253 251 254 253 253 251 246
170 170 167 153 164 173 175 191 187 173 158 146 139 127 126 139 148 156 168 209 222 227 357 215 183 146 90 114 107 109 115 123 144 150 162 161 159 164 159 157 169 198 213 196 147 140 249 207 201 221 222 216 210 211 57 51 27 354 326 281 261 269 268 132 106 102 131 265 258 253 263 270 269 267 267 269 269 266 263 258 255 249 243 241 241 246 245 245
166 169 167 148 131 127 142 179 182 174 165 160 165 184 189 174 190 168 164 206 224 42 5 8 31 55 80 105 132 139 124 123 169 157 164 169 174 179 167 171 188 196 191 120 110 122 218 228 222 223 223 72 180 161 76 30 317 285 266 272 251 252 259 105 100 120 138 261 270 273 277 275 274 273 270 269 268 266 263 258 255 250 245 238 236 242 244 246
173 174 175 168 147 122 112 140 190 192 172 173 197 240 308 327 216 116 153 212 187 115 227 1 18 93 73 96 157 181 197 159 153 160 170 177 195 201 170 181 207 191 147 135 147 168 206 231 226 184 96 80 83 123 209 236 253 244 242 261 259 255 250 104 95 123 171 237 279 289 287 280 280 278 269 260 257 260 259 257 259 259 256 246 238 240 243 246
187 184 182 184 178 165 165 220 229 203 183 193 221 246 292 293 156 123 277 241 170 153 194 202 221 167 123 134 184 212 207 160 161 170 174 183 195 212 176 188 213 187 159 187 201 205 215 224 195 118 113 142 139 160 194 212 231 231 234 249 246 208 274 233 104 137 203 231 284 296 289 277 278 275 266 254 244 250 259 261 263 262 259 253 248 249 248 247
202 195 192 193 193 194 200 242 311 248 225 231 240 241 230 195 167 170 268 266 176 154 175 186 261 202 164 136 178 204 216 150 168 163 171 189 175 169 196 200 212 198 190 206 212 228 229 96 95 126 154 194 179 173 197 219 233 224 222 239 252 275 288 277 11 329 244 225 262 291 285 268 261 259 264 256 225 236 250 253 256 249 244 249 252 252 249 248
214 205 200 195 199 202 207 256 280 240 232 236 241 231 215 197 184 227 239 254 213 162 145 181 191 204 166 133 168 194 215 160 102 132 166 196 179 153 192 214 222 213 209 204 215 239 229 101 128 153 160 196 195 197 206 220 246 229 211 226 251 278 309 318 344 334 283 238 195 294 295 275 246 256 267 268 237 246 240 231 245 245 232 232 241 242 239 243
222 217 206 195 197 199 201 267 209 198 212 221 233 220 212 206 174 114 209 252 239 174 151 176 176 179 162 151 158 148 213 190 82 78 150 190 287 176 186 166 230 238 206 188 220 253 174 128 162 157 159 174 196 222 201 203 244 244 223 248 254 273 302 306 318 309 289 303 186 194 286 283 275 269 269 271 269 270 266 251 253 256 240 227 230 232 231 236
218 222 214 199 195 192 182 296 169 167 194 231 225 208 203 200 157 50 211 243 246 167 144 169 192 174 158 157 166 163 201 149 112 105 134 158 213 20 227 179 164 237 168 155 230 218 141 162 181 170 173 176 200 222 182 194 232 241 16 4 303 246 266 276 302 271 286 320 269 193 236 275 275 257 253 259 263 265 266 261 258 257 249 241 240 239 237 239
209 216 215 204 198 194 180 106 168 178 290 292 219 199 193 192 173 33 217 235 235 142 145 155 118 132 129 139 178 169 106 122 140 153 82 21 223 193 233 202 192 196 173 184 223 177 140 178 185 178 188 200 206 198 163 192 218 46 65 40 74 89 52 197 270 272 295 317 282 190 182 264 279 240 216 234 244 249 253 256 259 257 243 234 243 244 231 215
197 204 210 206 202 203 199 198 204 229 288 307 204 193 183 187 217 226 220 231 175 121 127 138 131 133 135 148 169 142 109 115 80 130 119 113 266 263 239 227 227 197 178 208 235 41 75 198 201 191 202 208 141 50 53 197 193 128 129 93 85 99 85 113 258 288 296 285 272 188 169 253 290 263 183 197 227 237 248 252 256 253 182 170 191 162 141 139
190 192 205 201 195 203 208 230 242 237 273 286 187 180 170 177 211 197 207 217 170 130 89 132 162 160 155 160 171 174 165 105 72 126 146 164 168 227 272 262 264 196 172 233 258 82 87 42 314 221 217 150 104 68 27 45 120 143 146 118 109 125 107 175 248 298 267 266 263 171 171 198 293 281 176 171 201 208 227 243 235 178 135 154 148 128 135 141
187 182 200 196 192 198 198 223 234 228 257 229 167 160 174 199 205 204 202 191 155 152 133 152 157 155 168 172 167 174 170 128 140 155 153 159 170 187 189 175 213 189 193 236 230 155 143 166 167 145 96 119 113 91 48 56 129 156 159 155 160 172 172 207 207 171 236 253 288 113 173 186 252 267 149 140 184 203 226 244 233 192 132 146 136 138 143 141
185 178 196 196 197 200 192 206 227 220 211 154 155 163 196 183 209 225 198 99 158 181 155 163 163 164 180 182 171 171 169 153 166 175 173 175 182 187 195 194 174 184 224 222 200 159 188 203 157 107 218 187 155 119 87 93 182 198 184 176 200 216 204 221 209 195 231 233 109 82 203 210 243 256 251 232 234 232 240 244 257 281 289 288 272 161 154 154
185 183 194 197 200 204 204 215 227 210 176 138 161 205 208 191 208 218 196 159 161 162 129 142 163 172 179 184 180 167 167 171 172 183 185 180 196 201 206 212 195 202 238 204 188 173 190 206 159 152 198 212 199 171 148 171 189 196 190 182 201 210 220 233 217 217 238 217 104 117 165 243 256 265 266 258 252 239 232 238 264 289 284 283 287 253 214 188
185 185 188 198 205 210 212 217 222 195 163 124 134 196 197 215 213 205 205 196 108 90 107 132 150 169 178 185 179 161 167 186 170 177 183 180 206 210 207 217 211 218 248 195 196 191 211 246 180 177 167 176 201 214 192 171 179 199 203 197 209 215 231 241 232 241 246 212 130 157 176 235 248 300 321 278 293 276 255 262 277 282 274 277 288 283 271 238
200 193 188 197 206 214 216 214 208 181 149 115 98 179 199 213 206 199 201 179 128 117 115 136 145 165 181 180 153 169 184 204 173 179 187 188 207 207 202 210 206 207 205 208 213 188 221 243 162 157 149 166 186 219 197 166 176 200 201 212 228 234 238 252 272 254 295 327 217 196 231 251 263 298 288 267 280 271 250 241 240 249 252 255 267 264 261 243
322 206 209 202 205 213 216 212 201 181 155 123 133 186 212 218 210 199 181 137 151 141 129 146 156 173 187 179 191 193 220 83 170 179 200 207 223 219 212 208 198 199 198 201 206 177 221 253 128 126 152 169 180 216 182 185 199 180 181 207 223 22 263 249 236 104 73 278 252 218 250 268 283 288 274 245 238 238 235 231 231 242 244 231 238 248 243 193
299 214 222 222 212 211 212 211 197 180 165 147 167 187 222 236 264 309 350 42 145 145 142 164 179 190 192 186 193 190 181 151 169 186 195 195 226 225 217 217 199 198 202 206 220 208 221 261 143 169 183 164 0 357 132 6 0 160 188 193 117 44 312 246 248 217 215 251 255 235 250 266 271 275 278 197 217 229 234 237 240 249 252 241 240 248 235 158
263 236 239 233 217 205 205 203 188 170 156 165 191 205 226 227 221 267 332 348 151 158 175 195 188 193 198 196 189 175 175 174 174 191 193 178 212 209 197 206 201 199 206 211 224 222 207 233 220 176 196 123 93 217 190 115 31 44 287 185 136 231 221 205 226 236 236 245 256 252 256 261 249 251 267 232 221 229 233 230 225 230 240 243 249 258 240 147
241 240 253 219 208 203 198 189 173 154 154 178 193 213 211 219 240 276 313 320 266 188 200 209 202 200 207 207 185 165 175 187 172 182 200 186 197 195 185 191 196 199 204 205 214 210 186 224 224 54 336 123 136 207 206 171 148 356 304 243 206 248 235 214 211 217 239 246 253 261 262 256 245 248 262 262 257 255 252 247 235 226 232 242 253 264 244 134
217 236 234 183 193 198 187 175 161 151 187 192 200 200 192 207 224 239 265 316 327 253 210 220 217 212 212 211 189 165 180 199 187 189 205 189 187 197 188 188 180 183 195 199 211 213 179 218 224 134 3 189 180 205 201 183 173 186 219 214 202 200 239 282 245 222 240 247 251 261 265 263 260 253 261 269 271 262 258 258 243 228 238 249 250 254 2 18
208 239 213 164 179 182 168 162 171 184 194 213 218 209 208 211 199 204 216 234 301 312 25 20 239 234 227 212 201 179 182 201 201 202 208 198 208 216 184 192 176 151 171 194 208 211 193 209 215 172 179 213 210 197 199 200 189 191 204 205 206 198 181 231 234 212 219 243 253 262 270 271 269 247 262 269 273 274 272 256 240 233 247 255 247 124 89 304
206 228 188 163 175 171 160 180 208 191 210 217 207 207 210 216 200 185 170 154 240 287 18 19 221 279 281 253 240 178 176 201 204 205 213 212 218 217 167 200 184 154 159 187 200 202 191 207 220 210 198 202 180 104 85 316 276 245 232 218 217 203 189 214 221 197 187 208 252 265 265 270 266 132 240 263 258 295 293 252 257 253 250 257 261 88 123 243
212 213 115 161 180 173 163 205 207 203 228 216 204 204 188 186 203 184 161 167 190 184 191 221 201 204 237 244 254 29 150 215 220 216 227 237 234 225 128 140 166 167 177 183 184 181 134 176 219 229 224 188 126 97 61 31 330 266 252 223 227 218 209 219 229 227 202 191 215 230 242 262 269 102 104 274 76 37 262 237 263 256 245 253 253 266 254 245
216 219 148 175 189 183 176 206 205 208 223 216 214 212 191 186 196 185 175 180 181 176 190 204 192 196 218 209 200 216 188 191 251 248 244 253 262 337 105 148 159 180 200 194 173 173 166 184 201 218 232 209 183 189 201 171 181 237 239 219 223 224 215 205 108 263 241 221 223 225 237 256 260 105 116 160 147 196 215 197 223 237 243 270 287 274 251 258
203 219 231 195 196 197 202 217 211 213 215 215 220 217 209 205 196 193 191 185 184 189 194 199 187 182 188 181 188 207 199 192 226 249 243 251 273 16 17 187 179 201 221 209 117 158 180 193 179 196 222 219 211 211 196 186 181 204 227 220 219 217 210 207 197 217 236 237 232 231 244 258 264 262 229 185 169 205 218 200 203 226 244 259 282 287 278 266
199 207 209 194 203 220 244 248 238 229 214 209 217 219 216 217 206 199 202 195 190 196 205 209 193 181 174 172 185 203 200 199 211 218 220 235 241 255 348 223 214 224 217 131 132 140 127 237 195 204 222 228 237 255 113 137 163 194 210 211 212 211 209 213 222 222 231 242 243 235 240 257 268 269 262 252 238 234 234 230 226 227 235 238 244 266 276 267
217 211 197 186 197 220 234 232 226 230 219 208 212 217 216 219 218 202 203 205 194 194 210 218 203 196 187 180 191 206 202 200 209 217 223 225 221 165 106 113 253 246 107 107 157 124 93 252 230 227 239 245 255 267 235 161 180 204 208 204 204 207 206 205 219 229 230 239 249 242 237 249 264 269 266 265 270 272 267 260 254 242 226 208 197 232 250 256
221 223 207 199 204 210 217 217 210 215 220 214 214 220 216 217 220 211 202 207 205 199 205 216 213 215 210 197 195 205 204 204 209 214 221 223 213 182 139 146 216 165 131 130 317 114 150 228 232 231 246 252 257 262 258 246 235 226 219 208 198 198 202 206 220 230 228 231 248 253 250 247 256 266 269 271 275 276 275 275 269 256 235 189 186 224 238 248
218 241 228 222 228 219 217 215 206 211 217 217 219 224 219 216 218 217 201 195 212 209 206 216 216 214 216 215 213 215 211 207 207 208 213 218 214 205 206 209 156 85 140 154 95 91 184 224 228 225 240 251 254 256 254 253 254 251 245 236 218 206 203 206 218 226 227 233 244 253 257 255 254 263 272 279 278 274 279 285 275 257 245 229 220 230 240 248
212 222 223 230 239 234 232 219 201 204 213 216 221 221 218 218 219 218 205 190 196 202 205 219 223 216 217 221 222 225 222 215 213 209 204 210 213 209 217 212 186 32 38 147 154 284 208 220 234 232 243 252 256 259 257 255 257 261 262 257 248 236 218 211 217 223 227 235 238 243 253 259 258 261 271 279 277 273 277 277 268 258 253 249 245 249 252 253
221 228 223 229 226 220 226 218 201 200 202 206 216 216 215 219 218 217 212 198 198 202 201 214 226 225 223 225 227 232 234 233 237 235 220 220 220 207 209 206 189 175 143 160 168 164 189 217 351 286 244 251 254 258 262 264 265 266 265 255 245 241 234 223 218 216 222 231 236 240 247 256 262 265 268 272 272 273 273 271 270 267 259 252 252 255 257 256
218 235 222 230 231 216 216 220 211 211 205 196 208 214 216 221 220 220 219 206 210 220 210 211 223 227 228 232 232 236 249 255 263 280 288 283 287 261 240 236 223 196 156 165 175 148 174 197 188 197 228 249 251 256 266 271 265 251 245 243 238 237 241 243 236 225 224 227 232 239 242 250 262 267 262 261 266 270 271 271 273 268 255 249 251 254 259 261